STARLINK-3339 (50820 NORAD) Tracking and Keplerian Element Data
This shows tracking and keplerian element data for the satellite.
Feedback or suggestion? Click here.
Element | Value |
Catalog | 50820 |
Name | STARLINK-3339 |
Epoch Orbit | 2197 |
Epoch Day | 140.58334491 |
Epoch Year | 2022 |
RAAN | 285.0658 |
Inclination | 53.2174 |
Eccentricity | 0.0001801 |
Argument of Perigee | 43.0065 |
Mean Anonmoly | 63.5034 |
Mean Motion | 15.08844991 |
Decay Rate | -0.00034559 |
L1 | 1 50820U 22001T 22140.58334491 -.00034559 00000+0 -21634-2 0 9991 |
L2 | 2 50820 53.2174 285.0658 0001801 43.0065 63.5034 15.08844991 21970 |
Live tracking and technical data element details for STARLINK-3339 (NORAD 50820). STARLINK-3339 can be tracked NOW for your location showing map with azimuth and elevation plus other details from your city location.
Track the satellite on the map from your city or location and see movement details for azimuth, elevation, latitude, longitude, range, height, and movement on the map or in text.
IsCatalogInMostPopularTable: catalog: 50820, numindb: 20
Update: records affected: 1
GetName: 50820 STARLINK-3339
Hit Count: updated at: Mon, 23 May 2022 20:46:01 GMT